www.pogodaiklimat.ru

Погода и климат >> Архив погоды >> Россия >> Еврейская автономная область >> Екатерино-Никольское


АРХИВ ПОГОДЫ в Екатерино-Никольском

Время (UTC), дата Ветер
(напр.,м/с)
 
Видим.   Явления Облачность Т
(С)
Тd
(С)
f
(%)
Тe
(С)
Тes
(С)
Комфортность P
(гПа)
Po
(гПа)
Тmin
(С)
Tmax
(С)
R
(мм)
R24
(мм)
S
(см)
09 13.09 ЮВ 1 20 км 10/8 600 м
[Sc Ac und]
+18.7 +14.8 78 +21 +21 комфорт 1005.5 997.2 +21.4
12 13.09 Ю 1 10 км слаб. ливневой дождь 10/10 600 м
[Cb cap]
+16.6 +16.0 96 +17 +17 1004.6 996.2
15 13.09 СЗ 1 10 км слаб. ливневой дождь 10/10 600 м
[Cb cap]
+14.5 +14.0 97 +15 +15 1005.1 996.6
18 13.09 СЗ 2 20 км {ливн. осадки} 10/5 600 м
[Cb cap Ci fib]
+12.7 +10.6 87 +12 +12 1007.8 999.2
21 13.09 СЗ 2 50 км 8/3 600 м
[Sc Ci fib]
+11.2 +9.4 89 +10 +10 1010.2 1001.6 +10.6 23
00 14.09 СЗ 3 50 км 8/0
[As trans Ci fib]
+15.3 +10.3 72 +15 +17 1011.6 1003.0
03 14.09 СЗ 3 50 км 6/0
[Ci fib]
+20.4 +7.9 44 +22 +30 комфорт 1011.4 1003.0
06 14.09 З 3 50 км 6/4 600 м
[Cb calv As trans Ci fib]
+22.9 +6.4 34 +23 +26 комфорт 1010.2 1001.9
09 14.09 З 2 50 км 8/3 600 м
[Sc As trans Ci fib]
+20.3 +7.5 44 +22 +22 комфорт 1010.7 1002.3 +23.3
12 14.09 ЮЗ 1 20 км 4/0
[Ci fib]
+12.4 +9.7 84 +12 +12 1012.6 1003.9
15 14.09 ЮЗ 1 20 км 3/0
[Ci fib]
+11.3 +9.7 90 +11 +11 1012.7 1004.1
18 14.09 штиль 0 20 км 3/0
[Ci fib]
+8.4 +7.9 97 +7 +7 1012.8 1004.0
21 14.09 Ю 2 50 км 4/0
[Ac trans Ci fib]
+7.2 +6.8 97 +5 +5 1012.6 1003.8 +6.6
00 15.09 Ю 3 50 км 5/3 600 м
[Sc Ac As Ci fib]
+15.5 +9.9 69 +15 +17 1011.6 1003.1
03 15.09 Ю 5 50 км 10/3 600 м
[Sc Ac As Ci fib]
+21.2 +11.7 55 +23 +25 комфорт 1009.7 1001.4
06 15.09 Ю 6-11
{11}
50 км 8/3 600 м
[Sc Ac As Ci fib]
+22.0 +10.0 46 +24 +25 комфорт 1007.2 998.9
09 15.09 Ю 3
{12}
50 км 6/3 600 м
[Sc Ci fib]
+19.3 +10.5 57 +21 +21 комфорт 1005.8 997.4 +22.1
12 15.09 З 1 20 км 8/6 600 м
[Sc Ac trans Ci fib]
+14.6 +11.9 84 +15 +15 1006.5 998.0
15 15.09 штиль 0 20 км 10/8 600 м
[Sc Ac As]
+13.5 +10.4 82 +13 +13 1007.7 999.1
18 15.09 СЗ 3 20 км 10/6 600 м
[Sc Ac trans Ci fib]
+12.5 +2.7 51 +11 +11 1009.9 1001.2
21 15.09 С 1 50 км 8/0
[Ac trans Ci fib]
+7.6 +1.2 64 +7 +7 1011.7 1002.9 +7.6
00 16.09 З 1 50 км 4/0
[Ci fib]
+12.7 -2.6 34 +13 +18 1013.6 1004.9 +6.8
03 16.09 З 4 50 км 3/0
[Ci fib]
+15.8 -5.3 23 +15 +22 1013.6 1005.0
06 16.09 СЗ 4 50 км 3/0
[Ci fib]
+17.1 -4.2 23 +17 +21 1012.6 1004.1
09 16.09 З 3 50 км ясно +15.1 -0.8 34 +15 +15 1013.3 1004.7 +17.5
12 16.09 З 2 20 км ясно +10.2 +1.7 56 +9 +9 1015.0 1006.2
15 16.09 СЗ 1 20 км ясно +4.8 +2.5 85 +4 +4 1016.0 1007.1
18 16.09 СЗ 2 20 км ясно +4.0 +3.3 95 +1 +1 1016.3 1007.3
21 16.09 СЗ 3 50 км 5/0
[Ci fib]
+3.6 +3.1 97 -1 -1 1016.5 1007.5 +2.6
00 17.09 Ю 1 50 км 3/0
[Ci fib]
+10.7 +4.6 66 +11 +16 1015.8 1007.1
03 17.09 Ю 4 50 км 3/0
[Ci fib]
+16.9 +4.1 43 +16 +23 1013.7 1005.2
06 17.09 Ю 5
{10}
50 км 10/6 600 м
[Sc Ac lent Ci fib]
+16.9 +2.6 38 +16 +17 1011.0 1002.5
09 17.09 ЮВ 2 20 км 10/8 600 м
[Cb cap Ac As]
+14.9 +6.2 56 +15 +15 1009.0 1000.5 +18.1
12 17.09 В 1 20 км 10/8 600 м
[Cb cap Ac As Ci fib]
+10.5 +7.6 82 +10 +10 1007.0 998.4
15 17.09 В 1 20 км 10/4 600 м
[Sc Ac As Ci fib]
+9.9 +8.4 90 +9 +9 1003.8 995.2
18 17.09 СЗ 5
{10}
10 км слаб. ливневой дождь 10/8 600 м
[Cb cap Ac As]
+8.7 +6.6 87 +5 +5 1003.6 994.9
21 17.09 З 4
{13}
50 км {ливн. осадки} 10/6 600 м
[Cb cap Ac As Ci fib]
+4.3 +1.1 80 0 0 1006.7 997.8 +3.6 4
00 18.09 З 4-10
{13}
50 км 10/8 600 м
[Cb calv Ac und Ci fib]
+6.7 +1.6 70 +3 +4 1008.1 999.3
03 18.09 З 6-12
{15}
50 км 10/6 600 м
[Cb cap Ac und]
+8.5 -0.3 54 +5 +6 1008.9 1000.2
06 18.09 З 4
{13}
50 км 10/6 600 м
[Cb calv Ac und]
+9.5 0.0 51 +7 +8 1008.8 1000.1
09 18.09 СЗ 6-16
{16}
50 км {ливн. осадки} 10/8 600 м
[Cb calv Ci fib]
+8.3 +1.2 61 +5 +5 1010.6 1001.9 +10.7 0.3
12 18.09 З 4
{16}
20 км {ливн. осадки} 10/8 600 м
[Cb cap Ac As]
+7.3 +0.9 64 +4 +4 1010.8 1002.0
15 18.09 З 5
{13}
20 км 10/6 600 м
[Cb cap Ac As]
+7.9 -1.4 52 +5 +5 1008.8 1000.1
18 18.09 З 4
{10}
20 км 10/10 600 м
[Cb cap]
+7.0 -2.9 49 +4 +4 1007.5 998.7
21 18.09 СЗ 5-11
{14}
20 км 10/8 600 м
[Sc Ac As]
+6.4 -2.3 54 +3 +3 1008.0 999.2 +5.3 0.0
00 19.09 СЗ 6-12
{17}
50 км 6/4 600 м
[Sc Ac As Ci fib]
+8.0 -0.3 56 +4 +5 1009.0 1000.2
03 19.09 СЗ 8 50 км 8/3 600 м
[Cu Sc Ac As Ci fib]
+11.3 +1.5 51 +8 +9 1009.9 1001.3
06 19.09 СЗ 5
{17}
50 км 10/4 600 м
[Cu Sc Ac As Ci fib]
+14.3 +3.0 47 +13 +14 1011.4 1002.8
09 19.09 СЗ 3
{10}
50 км 8/4 600 м
[Sc Ac As Ci fib]
+12.3 +3.1 53 +11 +11 1013.2 1004.5 +14.4
12 19.09 З 1 20 км 6/0
[Ci fib]
+8.3 +3.5 72 +8 +8 1014.9 1006.1
15 19.09 ЮЗ 2 20 км 4/0
[Ci fib]
+5.9 +3.7 86 +3 +3 1015.4 1006.5
18 19.09 ЮЗ 1 20 км 6/0
[Ci fib]
+3.3 +2.7 96 +2 +2 1015.7 1006.7
21 19.09 СЗ 3 50 км 3/0
[Ci fib]
+4.0 +2.8 92 0 0 1016.8 1007.8 +2.1
00 20.09 З 1 50 км ясно +10.1 +4.9 70 +10 +15 1017.7 1008.9
03 20.09 Ю 1 50 км 8/0
[Ac As Ci]
+17.9 +2.3 35 +19 +26 1016.7 1008.2
06 20.09 Ю 3 50 км 10/4 600 м
[Sc Ac As Ci fib]
+18.6 +4.9 40 +19 +20 1015.7 1007.2

 

Местоположение метеостанции Екатерино-Никольское (Еврейская автономная область, Россия): широта 47.75 долгота 130.90 высота над уровнем моря 72 м.

В архиве по умолчанию представлена погода в Екатерино-Никольском за последнюю неделю. Архивные данные за месяц целиком и за предыдущие месяцы, начиная с января 2011 года, Вы можете получить, выбрав интересующий диапазон дат из раскрывающегося списка и нажав кнопку "Ввод!".


*Определитесь, кто Вы:
робот инопланетянин человек

Внимание! Время в таблицах - всемирное. Для получения местного времени необходимо прибавить поправку, которая равна 10 ч.

Смотрите также архив погоды в соседних городах и на ближайших метеорологических станциях:

Погода в Биджане (Еврейская автономная область, Россия) (76 км)
Погода в Фуцзине (Хэйлунцзян, Китай) (100 км)
Погода в Ленинское (Еврейская автономная область, Россия) (129 км)
Погода в Облучье (Еврейская автономная область, Россия) (139 км)
Погода в Ичунь (Хэйлунцзян, Китай) (150 км)
Погода в Биробиджане (Еврейская автономная область, Россия) (184 км)
Погода в Баоцине (Хэйлунцзян, Китай) (186 км)
Погода в Архаре (Амурская область, Россия) (197 км)
Погода в Смидовиче (Еврейская автономная область, Россия) (235 км)
Погода в Малиновке (Амурская область, Россия) (237 км)

Пояснения к столбцам:

Ветер - указаны скорость ветра в м/с - средняя за 10 мин, порывы в срок и между сроками (в фигурных скобках) и направление, откуда дует ветер: С - северный, СВ - северо-восточный, В - восточный, ЮВ - юго-восточный, Ю - южный, ЮЗ - юго-западный, З - западный, СЗ - северо-западный.
Видимость - горизонтальная дальность видимости в метрах или километрах. При видимости от 1 до 10 км при отсутствии осадков обычно наблюдается дымка, при ухудшении видимости до 1 км и менее - туман. В сухую погоду видимость может ухудшаться дымом, пылью или мглою.
Явления - указаны атмосферные явления, наблюдавшиеся в срок или в последний час перед сроком; фигурными скобками обозначены явления, наблюдавшиеся между сроками (за 1-3 часа до срока); квадратными скобками обозначены град или гололедные отложения с указанием их диаметра в мм.
Облачность - указаны через наклонную черту общая и нижняя облачность в баллах и высота нижней границы облаков в метрах; квадратными скобками обозначены формы облаков: Ci - перистые, Cs - перисто-слоистые, Cc - перисто-кучевые, Ac - высококучевые, As - высокослоистые, Sc - слоисто-кучевые, Ns - слоисто-дождевые, Cu - кучевые, Cb - кучево-дождевые. Подробнее классификацию облаков см. в Атласе облаков (PDF).
T - Температура воздуха - температура, измеренная на высоте 2 м над землей.
Td - Температура точки росы - температура, при понижении до которой содержащийся в воздухе водяной пар достигнет насыщения.
f - Относительная влажность воздуха - влажноcть воздуха, измеренная на высоте 2 м над землей.
Te - Эффективная температура - температура, которую ощущает одетый по сезону человек в тени. Характеристика душности погоды. При расчете учитывается влияние влажности воздуха и скорости ветра на теплоощущения человека.
Tes - Эффективная температура на солнце - температура, которую ощущает человек, с поправкой на солнечный нагрев. Характеристика знойности погоды. Зависит от высоты солнца над горизонтом, облачности и скорости ветра. Ночью, в пасмурную погоду, а также при ветре 12 м/с и более поправка равна нулю.
P - Атмосферное давление - приведенное к уровню моря атмосферное давление.
Po - Атмосферное давление - измеренное на уровне метеостанции атмосферное давление.
Tmin - Минимальная температура - минимум температуры воздуха на высоте 2 м над землей.
Tmax - Максимальная температура - максимум температуры воздуха на высоте 2 м над землей.
R - Количество осадков - Количество выпавших осадков за период времени, мм. При наведении курсора мыши на число - период времени, за который выпало указанное количество осадков.
R24 - Количество осадков - Количество выпавших осадков за 24 часа, мм.
S - Снежный покров - Высота снежного покрова, см. При наведении курсора мыши на число - состояние снежного покрова и степень покрытия местности в баллах.